CW5624 Weather Reports


time (UTC)temp
F
wind
direction
speed
knots
gust
knots
rain 1hr
in
rain 24hr
in
rain mn
in
humidity
%
barometer
mb
20240222110603 20 205 0.0 0.0 0.00 0.00 0.00 48 1021.0
20240222105603 20 205 0.0 0.0 0.00 0.00 0.00 48 1021.1
20240222104603 20 205 0.0 0.0 0.00 0.00 0.00 49 1021.2
20240222103603 20 205 0.0 0.0 0.00 0.00 0.00 48 1021.4
20240222102603 20 205 0.0 0.0 0.00 0.00 0.00 49 1021.3
20240222101603 20 205 0.0 0.0 0.00 0.00 0.00 49 1021.4
20240222100604 21 205 0.0 0.0 0.00 0.00 0.00 49 1021.5
20240222095603 21 205 0.0 0.0 0.00 0.00 0.00 49 1021.8
20240222094603 21 205 0.0 0.0 0.00 0.00 0.00 49 1021.8
20240222093603 21 205 0.0 0.0 0.00 0.00 0.00 49 1022.1
20240222092603 21 205 0.0 0.0 0.00 0.00 0.00 51 1022.1
20240222091604 21 205 0.0 0.0 0.00 0.00 0.00 50 1022.0
20240222090603 21 205 0.0 0.0 0.00 0.00 0.00 52 1022.1
20240222085603 21 205 0.0 0.0 0.00 0.00 0.00 53 1022.0
20240222084603 21 205 0.0 0.0 0.00 0.00 0.00 53 1022.4
20240222083603 21 205 0.0 0.0 0.00 0.00 0.00 53 1022.4
20240222082603 22 205 0.0 0.0 0.00 0.00 0.00 53 1022.4
20240222081604 22 205 0.0 0.0 0.00 0.00 0.00 55 1022.5
20240222080603 22 205 0.0 0.0 0.00 0.00 0.00 55 1022.8
20240222075603 22 205 0.0 0.0 0.00 0.00 0.00 56 1023.1
20240222074603 22 205 0.0 0.0 0.00 0.00 0.00 56 1023.2
20240222073603 22 205 0.0 0.0 0.00 0.00 0.00 57 1023.5
20240222072603 22 205 0.0 0.0 0.00 0.00 0.00 57 1023.6
20240222071603 22 205 0.0 0.0 0.00 0.00 0.00 58 1023.8
20240222070603 22 205 0.0 0.0 0.00 0.00 0.00 59 1023.9
20240222065603 23 205 0.0 0.0 0.00 0.00 0.00 59 1024.2
20240222064603 23 205 0.0 0.0 0.00 0.00 0.00 60 1024.2
20240222063604 23 205 0.0 0.0 0.00 0.00 0.00 60 1024.2
20240222062604 23 205 0.0 0.0 0.00 0.00 0.00 62 1024.3
20240222061603 23 205 0.0 0.0 0.00 0.00 0.00 63 1024.5
20240222060603 24 205 0.0 0.0 0.00 0.00 0.00 64 1024.6
20240222055603 24 205 0.0 0.0 0.00 0.00 0.00 65 1024.6
20240222054606 24 205 0.0 0.0 0.00 0.00 0.00 65 1024.6
20240222053603 24 205 0.0 0.0 0.00 0.00 0.00 66 1024.8
20240222052603 24 205 0.0 0.0 0.00 0.00 0.00 66 1024.9
20240222051603 25 205 0.0 0.0 0.00 0.00 0.00 66 1025.0
20240222050603 25 205 0.0 0.0 0.00 0.00 0.00 67 1025.1
20240222045603 25 205 0.0 0.0 0.00 0.00 0.00 68 1025.1
20240222044603 25 205 0.0 0.0 0.00 0.00 0.00 69 1025.3
20240222043603 25 205 0.0 0.0 0.00 0.00 0.00 69 1025.3
20240222042603 26 205 0.0 0.0 0.00 0.00 0.00 69 1025.4
20240222041606 26 205 0.0 0.0 0.00 0.00 0.00 70 1025.5
20240222040603 26 205 0.0 0.0 0.00 0.00 0.00 70 1025.8
20240222035603 26 205 0.0 0.0 0.00 0.00 0.00 71 1025.9
20240222034603 26 205 0.0 0.0 0.00 0.00 0.00 72 1026.1
20240222033603 27 205 0.0 0.0 0.00 0.00 0.00 72 1026.3
20240222032603 27 205 0.0 0.0 0.00 0.00 0.00 73 1026.5
20240222031603 27 205 0.0 0.0 0.00 0.00 0.00 73 1026.6
20240222030603 28 205 0.0 0.0 0.00 0.00 0.00 73 1026.7
20240222025603 28 205 0.0 0.0 0.00 0.00 0.00 73 1026.8
20240222024603 28 205 0.0 0.0 0.00 0.00 0.00 73 1026.9
20240222023603 28 205 0.0 0.0 0.00 0.00 0.00 73 1026.9
20240222022603 28 205 0.0 0.0 0.00 0.00 0.00 73 1027.0
20240222021603 28 205 0.0 0.0 0.00 0.00 0.00 74 1027.2
20240222020603 28 205 0.0 0.0 0.00 0.00 0.00 74 1027.3
20240222015603 29 205 0.0 0.0 0.00 0.00 0.00 74 1027.3
20240222014603 29 205 0.0 0.0 0.00 0.00 0.00 74 1027.2
20240222013603 29 205 0.0 0.0 0.00 0.00 0.00 74 1027.3
20240222012603 30 205 0.0 0.0 0.00 0.00 0.00 74 1027.5
20240222011604 30 205 0.0 0.9 0.00 0.00 0.00 73 1027.7
20240222010603 30 205 0.0 1.7 0.00 0.00 0.00 73 1027.7
20240222005604 30 206 0.0 0.9 0.00 0.00 0.00 73 1027.8
20240222004604 31 206 0.0 1.7 0.00 0.00 0.00 73 1028.0
20240222003603 31 206 0.0 2.6 0.00 0.00 0.00 73 1028.1
20240222002604 31 191 0.0 2.6 0.00 0.00 0.00 73 1028.1
20240222001604 31 174 0.0 1.7 0.00 0.00 0.00 73 1028.2
20240222000604 31 174 0.0 0.9 0.00 0.00 0.00 72 1028.3
20240221235604 32 174 0.0 0.9 0.00 0.00 0.00 72 1028.3
20240221234606 32 174 0.0 0.9 0.00 0.00 0.00 71 1028.3
20240221233604 32 174 0.0 0.0 0.00 0.00 0.00 71 1028.4
20240221232604 32 174 1.7 1.7 0.00 0.00 0.00 71 1028.4
20240221231605 33 186 0.0 0.9 0.00 0.00 0.00 70 1028.4
20240221230604 33 146 0.0 2.6 0.00 0.00 0.00 70 1028.3
20240221225604 33 172 0.0 4.3 0.00 0.00 0.00 70 1028.3
20240221224604 34 221 0.0 6.1 0.00 0.00 0.00 69 1028.2
20240221223604 34 196 1.7 5.2 0.00 0.00 0.00 69 1028.2
20240221222604 34 168 0.0 5.2 0.00 0.00 0.00 69 1028.3
20240221221604 34 205 0.0 5.2 0.00 0.00 0.00 70 1028.3
20240221220604 35 141 0.0 3.5 0.00 0.00 0.00 69 1028.4
20240221215604 35 97 0.0 5.2 0.00 0.00 0.00 69 1028.6
20240221214605 35 140 2.6 2.6 0.00 0.00 0.00 69 1028.8
20240221213604 36 192 0.0 4.3 0.00 0.00 0.00 68 1028.8
20240221212605 36 217 0.9 5.2 0.00 0.00 0.00 67 1028.8
20240221211606 36 188 3.5 4.3 0.00 0.00 0.00 66 1028.8
20240221210604 37 144 1.7 7.0 0.00 0.00 0.00 65 1028.8
20240221205604 37 172 1.7 4.3 0.00 0.00 0.00 64 1028.8
20240221204606 37 141 0.0 3.5 0.00 0.00 0.00 63 1028.8
20240221203604 38 17 0.9 7.8 0.00 0.00 0.00 61 1028.8
20240221202604 38 115 0.0 3.5 0.00 0.00 0.00 60 1028.8
20240221201604 39 159 1.7 5.2 0.00 0.00 0.00 59 1028.8
20240221200604 39 167 0.0 2.6 0.00 0.00 0.00 58 1028.8
20240221195604 39 159 1.7 5.2 0.00 0.00 0.00 58 1028.8
20240221194604 39 204 0.9 6.1 0.00 0.00 0.00 57 1028.9
20240221193604 40 198 0.0 2.6 0.00 0.00 0.00 53 1028.9
20240221192604 39 188 1.7 2.6 0.00 0.00 0.00 54 1028.9
20240221191604 39 19 0.9 3.5 0.00 0.00 0.00 53 1029.0
20240221190604 39 48 0.0 3.5 0.00 0.00 0.00 53 1029.2
20240221185608 39 11 0.9 3.5 0.00 0.00 0.00 54 1029.3
20240221184604 39 36 0.9 4.3 0.00 0.00 0.00 53 1029.4
20240221183604 40 108 0.0 2.6 0.00 0.00 0.00 53 1029.6
20240221182604 40 84 0.0 2.6 0.00 0.00 0.00 51 1029.8
20240221181604 39 217 0.0 1.7 0.00 0.00 0.00 54 1030.0
20240221180604 38 200 0.0 3.5 0.00 0.00 0.00 56 1030.2
20240221175604 38 28 0.0 4.3 0.00 0.00 0.00 56 1030.5
20240221174604 39 86 0.9 3.5 0.00 0.00 0.00 55 1030.8
20240221173605 40 318 0.0 3.5 0.00 0.00 0.00 54 1031.0
20240221172604 40 225 0.0 3.5 0.00 0.00 0.00 54 1031.3
20240221171604 40 154 0.0 4.3 0.00 0.00 0.00 56 1031.5
20240221170604 38 77 0.0 2.6 0.00 0.00 0.00 57 1031.7
20240221165604 38 197 0.0 6.1 0.00 0.00 0.00 56 1032.1
20240221164604 39 231 0.9 4.3 0.00 0.00 0.00 56 1032.3
20240221163606 38 303 0.9 2.6 0.00 0.00 0.00 57 1032.5
20240221162604 39 308 0.9 4.3 0.00 0.00 0.00 56 1032.9
20240221161604 39 138 2.6 6.1 0.00 0.00 0.00 56 1033.1
20240221160640 38 257 0.0 4.3 0.00 0.00 0.00 58 1033.2
20240221155604 38 244 0.0 5.2 0.00 0.00 0.00 56 1033.4
20240221154604 38 163 2.6 3.5 0.00 0.00 0.00 58 1033.6
20240221153604 37 216 6.1 7.0 0.00 0.00 0.00 59 1033.8
20240221152604 36 109 0.9 4.3 0.00 0.00 0.00 59 1033.9
20240221151604 36 205 3.5 3.5 0.00 0.00 0.00 61 1033.9
20240221150604 35 96 0.0 2.6 0.00 0.00 0.00 61 1034.0
20240221145604 34 104 0.0 2.6 0.00 0.00 0.00 60 1034.1
20240221144605 34 218 0.0 4.3 0.00 0.00 0.00 62 1034.3
20240221143604 33 239 0.9 4.3 0.00 0.00 0.00 64 1034.4
20240221142607 32 181 0.0 2.6 0.00 0.00 0.00 65 1034.5
20240221141604 31 162 0.0 1.7 0.00 0.00 0.00 68 1034.6
20240221140604 29 155 0.0 0.9 0.00 0.00 0.00 70 1034.5
20240221135604 28 155 0.0 0.9 0.00 0.00 0.00 73 1034.6
20240221134605 27 155 0.0 0.9 0.00 0.00 0.00 74 1034.7
20240221133605 26 155 0.0 1.7 0.00 0.00 0.00 73 1034.6
20240221132605 25 155 0.0 0.9 0.00 0.00 0.00 70 1034.5
20240221131605 24 155 0.0 0.0 0.00 0.00 0.00 67 1034.5
20240221130605 23 155 0.0 0.0 0.00 0.00 0.00 63 1034.4
20240221125605 22 155 0.0 0.0 0.00 0.00 0.00 61 1034.4
20240221124605 21 155 0.0 0.0 0.00 0.00 0.00 58 1034.2
20240221123605 20 156 0.0 0.0 0.00 0.00 0.00 56 1034.3
20240221122605 20 156 0.0 0.0 0.00 0.00 0.00 57 1034.4
20240221121605 19 156 0.0 0.0 0.00 0.00 0.00 59 1034.4
20240221120605 19 156 0.0 0.0 0.00 0.00 0.00 59 1034.4
20240221115605 19 156 0.0 0.0 0.00 0.00 0.00 61 1034.2
20240221114605 19 156 0.0 0.0 0.00 0.00 0.00 62 1034.1
20240221113605 19 156 0.0 0.0 0.00 0.00 0.00 63 1034.1
20240221112605 19 156 0.0 0.0 0.00 0.00 0.00 63 1034.2
20240221111605 19 156 0.0 0.0 0.00 0.00 0.00 63 1034.1